SCP
0 0 0 0 -0 -0 -0 -0 -0 -0 -0 -0 -0 -0 -0 -0 -0 0 -0 -0 -0 0 0 0 0 0 0 0 0 0 0 0 0 0 0 0 0 0 0 0 0 0 0
0 0 0 0 0 -0 -0 -0 -0 0 0 0 -0 -0 -0 -0 -0 -0 -0 -0 -0 -0 0 0 0 0 0 0 0 0 0 0 0 0 0 0 0 0 0 0 0 0 0
0 0 0 1 1 1 0 0 0 0 0 0 0 0 -0 0 0 0 0 0 -0 0 0 0 0 0 0 -0 0 0 0 0 0 0 0 0 0 0 0 0 0 0 0
0 0 0 1 2 2 1 1 1 1 1 1 0 0 0 -0 0 0 0 0 0 0 0 0 0 0 0 -0 0 0 0 0 0 0 0 0 0 0 0 0 0 0 0
0 0 0 1 2 3 3 2 2 1 1 1 1 1 0 0 0 0 0 0 -0 0 0 0 0 0 0 0 0 0 0 0 0 0 0 0 0 0 0 0 0 0 0
0 0 0 0 1 2 3 3 2 2 2 2 2 1 1 1 0 0 0 0 0 0 0 0 0 0 0 0 0 0 0 0 0 0 0 0 0 0 0 0 0 0 0
-0 0 0 0 0 1 3 4 4 3 3 2 2 2 2 1 1 0 0 0 0 0 0 0 0 0 0 0 0 0 0 0 0 0 0 0 0 0 0 0 0 0 0
0 -0 0 0 0 0 1 1 3 3 4 4 3 2 2 2 1 1 1 0 0 0 0 0 0 0 0 0 0 0 0 0 0 0 0 0 0 0 0 0 0 0 0
0 0 -0 -0 0 0 0 0 1 1 2 1 1 3 2 2 1 1 1 1 0 1 0 0 0 0 0 0 0 0 0 0 0 0 0 0 0 0 0 0 0 0 0
0 0 0 -0 0 0 0 0 0 0 0 1 1 0 1 1 2 2 1 1 1 1 1 0 0 0 0 0 0 0 0 0 0 0 0 0 0 0 0 0 0 0 0
0 0 0 0 0 0 0 0 0 0 0 0 0 0 0 0 1 1 1 1 1 1 1 1 1 1 0 0 0 0 0 0 0 0 0 0 0 0 0 0 0 0 0
0 0 -0 0 0 0 0 0 0 0 0 0 0 0 0 0 0 0 0 0 0 1 1 1 1 1 1 1 0 0 0 0 0 0 0 0 0 0 0 0 0 0 0
0 0 0 0 0 -0 0 0 0 0 0 0 0 0 0 0 0 0 -0 -0 0 0 1 1 1 1 1 1 0 1 1 0 0 0 0 0 0 0 0 0 0 0 0
0 0 0 0 0 0 -0 -0 0 0 0 0 0 0 0 0 0 0 -0 0 0 0 0 0 1 1 0 1 0 1 1 0 0 0 0 0 0 0 0 0 0 0 0
0 0 0 0 0 -0 0 0 0 0 0 0 0 0 -0 -0 -0 0 0 0 0 0 0 0 0 0 1 1 1 1 1 0 0 0 0 0 0 0 0 0 0 0 0
0 0 0 0 0 0 0 0 0 0 0 0 0 0 0 -0 -0 0 0 -0 -0 0 0 0 0 0 0 0 0 1 1 0 0 0 0 0 0 0 0 0 0 0 0
0 0 0 0 0 0 0 0 0 0 0 0 0 -0 -0 0 -0 -0 -0 0 0 0 0 0 -0 0 0 0 0 0 1 0 0 0 0 0 0 0 0 0 0 0 0
0 0 0 0 0 0 0 0 0 0 0 0 -0 0 -0 -0 0 0 0 0 0 0 0 0 0 0 0 0 0 0 0 0 0 0 0 0 0 0 0 0 0 0 0
0 0 0 0 0 0 0 0 0 0 0 0 0 0 0 0 -0 -0 -0 0 0 0 0 0 0 0 0 0 0 0 0 0 0 0 0 0 0 0 0 0 0 0 0
0 0 0 0 0 0 0 0 0 0 -0 -0 -0 0 0 0 0 0 0 -0 0 0 0 0 0 0 0 0 0 0 0 0 0 0 0 0 0 0 0 0 0 0 0
0 0 0 0 0 0 0 0 0 0 0 0 0 0 0 0 0 0 0 -0 -0 0 0 0 0 0 0 0 0 0 0 0 0 0 0 0 0 0 0 0 0 0 0
0 0 -0 -0 0 0 0 0 0 0 0 0 0 0 0 0 0 0 0 0 0 0 0 0 0 0 0 0 0 0 0 0 0 0 0 0 0 0 0 0 0 0 0
-0 -0 -0 -0 -0 0 0 0 0 0 0 0 0 0 0 0 0 0 0 0 0 0 0 0 0 0 0 0 0 0 0 0 0 0 0 0 0 0 0 0 0 0 0
-0 -0 -0 -0 -0 0 0 0 0 0 0 0 0 0 0 0 0 0 0 0 0 0 0 0 0 0 0 0 0 0 0 0 0 0 0 0 0 0 0 0 0 0 0
-0 -0 -0 -0 -0 -0 -0 -0 0 0 0 0 0 0 0 0 0 0 0 0 0 0 0 0 0 0 0 0 0 0 0 0 0 0 0 0 0 0 0 0 0 0 0
-0 -0 -0 -0 -0 -0 -0 0 0 0 0 0 0 0 0 0 0 0 0 0 0 0 0 0 0 0 0 0 0 0 0 0 0 0 0 0 0 0 0 0 0 0 0
Wind_Speed_500mb
40 55 69 82 80 81 87 90 92 89 89 88 86 82 80 75 71 67 61 58 57 55 51 50 48 46 46 42 43 40 41 41 40 38 45 46 47 46 44 42 42 42 43
31 45 63 82 91 88 88 88 90 89 85 84 83 83 77 76 71 67 65 62 59 59 54 50 50 51 50 51 50 50 50 47 43 44 40 41 45 49 48 46 48 48 48
51 37 61 88 88 90 89 87 88 89 85 81 81 81 75 76 75 74 69 66 62 58 56 52 48 51 52 54 56 55 54 53 50 51 45 21 25 32 42 44 46 51 55
57 50 27 71 85 87 85 86 86 88 88 83 85 83 83 78 80 75 71 68 67 63 59 52 51 49 52 55 55 55 55 52 51 50 50 46 41 23 15 18 24 35 44
44 47 25 32 62 74 80 79 81 85 85 87 88 84 83 81 74 76 75 72 70 68 66 61 59 54 52 53 52 57 58 56 55 56 54 48 52 58 58 55 53 47 41
38 33 19 11 33 48 60 68 73 80 82 87 92 89 86 80 79 75 75 74 76 72 69 65 63 60 57 54 53 53 56 60 62 59 60 58 57 54 58 60 62 59 61
35 30 23 12 13 34 45 53 57 66 77 81 86 89 87 83 77 76 74 73 76 79 75 70 66 65 63 58 58 57 58 60 63 62 62 59 61 58 59 55 57 63 65
30 29 23 19 13 18 32 40 47 60 69 78 77 80 79 80 78 72 69 73 74 80 79 73 68 65 63 62 59 57 56 56 61 59 58 60 57 56 56 60 58 58 60
34 27 24 18 13 14 21 26 38 44 57 65 64 62 71 69 70 63 61 65 72 75 82 78 72 65 63 59 55 58 60 60 62 63 58 56 56 57 58 52 49 49 54
36 30 29 24 22 25 30 27 35 28 29 33 40 44 48 60 66 54 45 57 71 74 76 80 78 72 63 59 58 59 58 57 59 61 60 59 55 54 52 49 50 51 53
35 35 31 29 23 25 25 27 37 40 34 44 58 59 69 63 57 59 56 52 65 78 77 74 69 66 62 56 53 54 53 54 56 54 54 55 51 48 47 47 44 41 40
35 34 31 26 31 31 32 32 33 34 38 48 37 46 62 77 71 60 44 57 57 79 80 79 75 64 60 55 50 49 48 47 50 49 48 47 48 49 47 43 38 33 29
40 42 30 26 33 38 34 28 30 30 28 27 22 31 46 54 45 45 81 76 88 91 91 82 81 67 61 59 54 53 50 48 46 48 47 42 43 43 43 40 37 32 28
47 42 34 32 31 31 26 21 24 32 32 46 37 36 36 30 20 15 6 80 37 99 92 78 79 75 64 61 55 53 51 50 49 48 44 39 39 39 34 37 36 35 32
48 45 41 34 27 25 19 9 19 23 25 57 49 30 46 33 36 46 41 49 99 90 85 66 63 59 54 55 57 48 49 45 45 45 41 39 37 36 34 33 33 35 37
53 49 33 32 25 23 12 7 11 13 16 43 47 48 40 42 48 37 21 39 58 56 50 50 53 67 61 50 63 49 44 46 40 39 41 39 36 39 39 37 36 37 37
50 40 26 25 17 16 15 9 12 9 1 36 25 20 12 24 34 46 49 50 54 49 40 43 34 32 36 39 53 66 48 46 47 42 42 42 40 39 39 37 40 43 42
32 23 7 7 7 5 17 20 21 19 14 13 11 7 8 14 20 20 21 20 25 26 31 41 40 37 31 37 49 36 45 58 54 44 51 49 46 49 47 42 42 40 42
28 8 19 19 14 17 17 14 10 14 14 20 19 19 11 7 7 8 4 9 11 17 25 24 22 30 29 30 43 41 46 44 46 44 50 48 50 51 49 46 48 46 46
28 25 20 19 24 27 24 18 19 9 12 18 19 15 16 15 14 10 13 12 11 17 12 10 12 16 21 23 39 41 39 34 38 50 56 43 43 45 50 52 53 55 52
25 25 31 35 31 27 19 17 22 30 27 25 22 21 19 16 17 14 3 6 10 4 6 3 2 7 14 20 32 36 36 37 40 43 51 62 50 45 45 51 51 49 50
13 18 25 30 30 28 23 23 22 26 24 19 15 21 23 22 17 10 8 6 3 8 9 11 12 9 10 21 31 36 36 44 45 33 32 40 71 77 58 61 51 48 61
19 7 16 24 23 29 32 24 23 12 10 9 7 10 13 14 18 17 13 15 13 9 11 9 8 6 7 10 14 14 25 38 46 56 52 54 57 58 61 60 50 48 60
11 15 13 19 20 22 24 30 24 18 11 8 8 5 5 4 6 10 13 18 19 21 22 20 16 10 7 5 1 3 10 15 20 27 33 34 34 38 49 64 73 81 79
14 10 11 14 15 18 18 19 23 24 11 11 11 8 5 1 4 6 6 3 9 14 17 18 19 17 12 9 9 7 7 12 18 23 31 35 39 42 47 56 62 62 64
15 10 12 13 13 13 14 19 28 26 10 5 8 7 7 8 7 8 5 5 4 6 11 12 11 15 14 15 17 19 22 23 25 25 23 25 30 37 40 41 46 51 62
Wind_Direction_500mb
256 245 239 236 231 230 229 228 224 222 221 220 218 218 220 222 223 221 219 218 218 217 219 221 220 219 220 219 219 217 215 219 220 225 236 236 239 244 249 247 251 254 256
302 248 243 241 236 231 229 227 228 227 227 227 226 224 223 224 225 224 222 220 218 218 218 222 224 224 225 222 223 224 226 228 226 237 243 247 246 246 251 255 257 255 254
353 337 235 238 238 235 231 230 227 227 226 230 231 231 230 230 228 224 223 222 218 218 217 223 227 227 228 228 228 228 232 235 232 234 237 232 245 260 264 259 259 256 255
358 1 315 227 233 237 234 231 229 228 227 227 230 230 234 230 229 229 229 226 221 219 219 223 226 228 229 234 233 234 238 240 243 241 241 242 249 261 270 260 257 256 257
355 356 2 235 235 235 236 234 233 232 231 231 231 231 233 238 238 232 229 230 230 227 226 226 225 230 231 233 235 237 240 245 248 244 251 254 257 255 257 270 268 269 267
349 351 349 206 234 241 241 238 232 232 235 231 232 232 231 233 239 242 239 232 229 230 231 229 230 230 233 234 236 240 245 247 247 249 251 257 258 259 259 264 271 276 278
337 338 338 310 233 224 232 233 231 232 238 235 233 233 234 233 235 242 248 245 239 235 234 232 233 234 233 236 242 244 248 251 249 249 252 255 259 262 261 264 269 277 281
341 341 329 322 289 232 224 232 237 231 233 237 236 235 236 236 236 238 245 252 250 246 241 236 235 236 243 241 245 248 256 256 250 252 251 252 256 256 261 265 267 272 274
336 340 348 297 286 249 228 221 210 218 230 233 226 228 236 236 238 239 248 257 260 255 248 245 242 241 242 240 243 250 255 258 252 249 251 254 255 256 258 262 264 266 274
334 338 339 330 331 276 263 249 261 253 230 225 227 228 232 251 237 235 248 264 266 262 256 250 246 242 238 241 244 248 253 256 250 247 246 251 253 258 256 256 262 264 267
326 333 330 327 320 308 293 279 264 248 253 261 258 251 246 237 229 235 238 260 273 262 257 247 242 240 242 241 243 246 248 253 249 247 247 246 250 253 255 258 260 260 259
315 321 323 323 323 313 304 300 294 287 264 263 258 255 236 242 237 243 251 254 249 263 253 249 240 238 238 240 244 242 244 246 247 246 245 246 248 250 250 250 252 254 255
316 316 307 318 316 311 305 293 299 285 272 214 212 223 226 222 226 258 264 263 252 262 248 238 236 237 236 238 240 240 247 250 251 250 246 245 247 244 242 246 246 252 254
313 316 311 311 318 318 302 283 300 289 238 202 215 213 217 216 192 209 254 226 229 249 233 235 235 235 237 235 237 239 245 244 250 247 237 241 244 238 242 245 247 252 255
311 312 311 310 323 330 327 313 305 313 230 200 200 192 212 219 221 222 232 205 220 225 228 236 235 235 228 230 232 237 246 239 247 236 230 236 240 240 243 244 246 249 251
311 310 312 307 324 347 345 333 319 354 190 209 214 208 213 225 216 220 204 210 222 220 228 226 233 229 234 238 235 220 230 236 237 240 238 239 238 238 240 240 243 248 248
307 315 303 302 324 329 27 21 34 31 206 174 170 206 220 199 216 220 224 226 225 220 230 239 235 238 246 234 228 207 217 238 245 239 242 241 237 238 244 246 247 249 249
301 297 344 352 25 72 60 68 63 62 69 78 109 151 181 195 208 214 223 223 222 233 236 228 246 258 259 241 210 207 230 233 237 250 243 243 244 244 246 247 249 250 250
290 90 61 56 74 61 55 43 29 60 63 65 77 83 76 43 343 317 315 263 247 241 247 242 236 229 234 239 209 228 240 249 246 245 251 244 246 250 247 249 250 249 250
51 59 60 62 59 51 32 27 44 26 35 37 32 48 53 48 37 57 55 89 111 120 133 168 227 227 235 231 215 226 244 235 241 239 245 258 257 258 258 256 254 250 257
50 63 68 64 58 49 34 51 54 51 45 42 35 43 42 43 44 45 66 106 156 115 89 128 209 214 231 216 214 224 238 239 238 251 251 254 257 268 277 263 260 255 261
68 69 68 62 57 51 43 45 51 47 36 23 28 47 49 54 59 59 75 95 156 222 246 251 246 221 194 229 241 244 259 250 245 248 249 256 255 256 273 264 261 265 262
81 66 58 57 54 57 49 50 51 42 30 22 39 38 38 57 63 64 77 95 95 91 85 81 97 143 177 213 234 248 240 248 249 248 265 267 259 254 263 267 272 270 268
146 82 48 37 48 52 51 49 45 34 16 349 341 359 353 31 30 44 66 79 74 68 66 64 65 62 97 122 249 239 243 248 247 251 261 266 260 256 258 260 263 266 266
154 139 51 28 40 35 35 41 37 32 47 55 33 28 62 47 12 23 20 46 55 62 73 64 72 73 60 58 42 19 340 313 296 287 281 277 274 271 268 267 263 261 263
135 118 79 45 26 21 31 28 16 8 33 75 46 54 44 9 338 307 312 219 172 74 55 49 36 41 32 13 356 349 349 348 346 337 324 309 294 287 286 286 281 274 268
Wind_Speed_850mb
40 55 69 82 80 81 87 90 92 89 89 88 86 82 80 75 71 67 61 58 57 55 51 50 48 46 46 42 43 40 41 41 40 38 45 46 47 46 44 42 42 42 43
31 45 63 82 91 88 88 88 90 89 85 84 83 83 77 76 71 67 65 62 59 59 54 50 50 51 50 51 50 50 50 47 43 44 40 41 45 49 48 46 48 48 48
51 37 61 88 88 90 89 87 88 89 85 81 81 81 75 76 75 74 69 66 62 58 56 52 48 51 52 54 56 55 54 53 50 51 45 21 25 32 42 44 46 51 55
57 50 27 71 85 87 85 86 86 88 88 83 85 83 83 78 80 75 71 68 67 63 59 52 51 49 52 55 55 55 55 52 51 50 50 46 41 23 15 18 24 35 44
44 47 25 32 62 74 80 79 81 85 85 87 88 84 83 81 74 76 75 72 70 68 66 61 59 54 52 53 52 57 58 56 55 56 54 48 52 58 58 55 53 47 41
38 33 19 11 33 48 60 68 73 80 82 87 92 89 86 80 79 75 75 74 76 72 69 65 63 60 57 54 53 53 56 60 62 59 60 58 57 54 58 60 62 59 61
35 30 23 12 13 34 45 53 57 66 77 81 86 89 87 83 77 76 74 73 76 79 75 70 66 65 63 58 58 57 58 60 63 62 62 59 61 58 59 55 57 63 65
30 29 23 19 13 18 32 40 47 60 69 78 77 80 79 80 78 72 69 73 74 80 79 73 68 65 63 62 59 57 56 56 61 59 58 60 57 56 56 60 58 58 60
34 27 24 18 13 14 21 26 38 44 57 65 64 62 71 69 70 63 61 65 72 75 82 78 72 65 63 59 55 58 60 60 62 63 58 56 56 57 58 52 49 49 54
36 30 29 24 22 25 30 27 35 28 29 33 40 44 48 60 66 54 45 57 71 74 76 80 78 72 63 59 58 59 58 57 59 61 60 59 55 54 52 49 50 51 53
35 35 31 29 23 25 25 27 37 40 34 44 58 59 69 63 57 59 56 52 65 78 77 74 69 66 62 56 53 54 53 54 56 54 54 55 51 48 47 47 44 41 40
35 34 31 26 31 31 32 32 33 34 38 48 37 46 62 77 71 60 44 57 57 79 80 79 75 64 60 55 50 49 48 47 50 49 48 47 48 49 47 43 38 33 29
40 42 30 26 33 38 34 28 30 30 28 27 22 31 46 54 45 45 81 76 88 91 91 82 81 67 61 59 54 53 50 48 46 48 47 42 43 43 43 40 37 32 28
47 42 34 32 31 31 26 21 24 32 32 46 37 36 36 30 20 15 6 80 37 99 92 78 79 75 64 61 55 53 51 50 49 48 44 39 39 39 34 37 36 35 32
48 45 41 34 27 25 19 9 19 23 25 57 49 30 46 33 36 46 41 49 99 90 85 66 63 59 54 55 57 48 49 45 45 45 41 39 37 36 34 33 33 35 37
53 49 33 32 25 23 12 7 11 13 16 43 47 48 40 42 48 37 21 39 58 56 50 50 53 67 61 50 63 49 44 46 40 39 41 39 36 39 39 37 36 37 37
50 40 26 25 17 16 15 9 12 9 1 36 25 20 12 24 34 46 49 50 54 49 40 43 34 32 36 39 53 66 48 46 47 42 42 42 40 39 39 37 40 43 42
32 23 7 7 7 5 17 20 21 19 14 13 11 7 8 14 20 20 21 20 25 26 31 41 40 37 31 37 49 36 45 58 54 44 51 49 46 49 47 42 42 40 42
28 8 19 19 14 17 17 14 10 14 14 20 19 19 11 7 7 8 4 9 11 17 25 24 22 30 29 30 43 41 46 44 46 44 50 48 50 51 49 46 48 46 46
28 25 20 19 24 27 24 18 19 9 12 18 19 15 16 15 14 10 13 12 11 17 12 10 12 16 21 23 39 41 39 34 38 50 56 43 43 45 50 52 53 55 52
25 25 31 35 31 27 19 17 22 30 27 25 22 21 19 16 17 14 3 6 10 4 6 3 2 7 14 20 32 36 36 37 40 43 51 62 50 45 45 51 51 49 50
13 18 25 30 30 28 23 23 22 26 24 19 15 21 23 22 17 10 8 6 3 8 9 11 12 9 10 21 31 36 36 44 45 33 32 40 71 77 58 61 51 48 61
19 7 16 24 23 29 32 24 23 12 10 9 7 10 13 14 18 17 13 15 13 9 11 9 8 6 7 10 14 14 25 38 46 56 52 54 57 58 61 60 50 48 60
11 15 13 19 20 22 24 30 24 18 11 8 8 5 5 4 6 10 13 18 19 21 22 20 16 10 7 5 1 3 10 15 20 27 33 34 34 38 49 64 73 81 79
14 10 11 14 15 18 18 19 23 24 11 11 11 8 5 1 4 6 6 3 9 14 17 18 19 17 12 9 9 7 7 12 18 23 31 35 39 42 47 56 62 62 64
15 10 12 13 13 13 14 19 28 26 10 5 8 7 7 8 7 8 5 5 4 6 11 12 11 15 14 15 17 19 22 23 25 25 23 25 30 37 40 41 46 51 62
Wind_Direction_850mb
256 245 239 236 231 230 229 228 224 222 221 220 218 218 220 222 223 221 219 218 218 217 219 221 220 219 220 219 219 217 215 219 220 225 236 236 239 244 249 247 251 254 256
302 248 243 241 236 231 229 227 228 227 227 227 226 224 223 224 225 224 222 220 218 218 218 222 224 224 225 222 223 224 226 228 226 237 243 247 246 246 251 255 257 255 254
353 337 235 238 238 235 231 230 227 227 226 230 231 231 230 230 228 224 223 222 218 218 217 223 227 227 228 228 228 228 232 235 232 234 237 232 245 260 264 259 259 256 255
358 1 315 227 233 237 234 231 229 228 227 227 230 230 234 230 229 229 229 226 221 219 219 223 226 228 229 234 233 234 238 240 243 241 241 242 249 261 270 260 257 256 257
355 356 2 235 235 235 236 234 233 232 231 231 231 231 233 238 238 232 229 230 230 227 226 226 225 230 231 233 235 237 240 245 248 244 251 254 257 255 257 270 268 269 267
349 351 349 206 234 241 241 238 232 232 235 231 232 232 231 233 239 242 239 232 229 230 231 229 230 230 233 234 236 240 245 247 247 249 251 257 258 259 259 264 271 276 278
337 338 338 310 233 224 232 233 231 232 238 235 233 233 234 233 235 242 248 245 239 235 234 232 233 234 233 236 242 244 248 251 249 249 252 255 259 262 261 264 269 277 281
341 341 329 322 289 232 224 232 237 231 233 237 236 235 236 236 236 238 245 252 250 246 241 236 235 236 243 241 245 248 256 256 250 252 251 252 256 256 261 265 267 272 274
336 340 348 297 286 249 228 221 210 218 230 233 226 228 236 236 238 239 248 257 260 255 248 245 242 241 242 240 243 250 255 258 252 249 251 254 255 256 258 262 264 266 274
334 338 339 330 331 276 263 249 261 253 230 225 227 228 232 251 237 235 248 264 266 262 256 250 246 242 238 241 244 248 253 256 250 247 246 251 253 258 256 256 262 264 267
326 333 330 327 320 308 293 279 264 248 253 261 258 251 246 237 229 235 238 260 273 262 257 247 242 240 242 241 243 246 248 253 249 247 247 246 250 253 255 258 260 260 259
315 321 323 323 323 313 304 300 294 287 264 263 258 255 236 242 237 243 251 254 249 263 253 249 240 238 238 240 244 242 244 246 247 246 245 246 248 250 250 250 252 254 255
316 316 307 318 316 311 305 293 299 285 272 214 212 223 226 222 226 258 264 263 252 262 248 238 236 237 236 238 240 240 247 250 251 250 246 245 247 244 242 246 246 252 254
313 316 311 311 318 318 302 283 300 289 238 202 215 213 217 216 192 209 254 226 229 249 233 235 235 235 237 235 237 239 245 244 250 247 237 241 244 238 242 245 247 252 255
311 312 311 310 323 330 327 313 305 313 230 200 200 192 212 219 221 222 232 205 220 225 228 236 235 235 228 230 232 237 246 239 247 236 230 236 240 240 243 244 246 249 251
311 310 312 307 324 347 345 333 319 354 190 209 214 208 213 225 216 220 204 210 222 220 228 226 233 229 234 238 235 220 230 236 237 240 238 239 238 238 240 240 243 248 248
307 315 303 302 324 329 27 21 34 31 206 174 170 206 220 199 216 220 224 226 225 220 230 239 235 238 246 234 228 207 217 238 245 239 242 241 237 238 244 246 247 249 249
301 297 344 352 25 72 60 68 63 62 69 78 109 151 181 195 208 214 223 223 222 233 236 228 246 258 259 241 210 207 230 233 237 250 243 243 244 244 246 247 249 250 250
290 90 61 56 74 61 55 43 29 60 63 65 77 83 76 43 343 317 315 263 247 241 247 242 236 229 234 239 209 228 240 249 246 245 251 244 246 250 247 249 250 249 250
51 59 60 62 59 51 32 27 44 26 35 37 32 48 53 48 37 57 55 89 111 120 133 168 227 227 235 231 215 226 244 235 241 239 245 258 257 258 258 256 254 250 257
50 63 68 64 58 49 34 51 54 51 45 42 35 43 42 43 44 45 66 106 156 115 89 128 209 214 231 216 214 224 238 239 238 251 251 254 257 268 277 263 260 255 261
68 69 68 62 57 51 43 45 51 47 36 23 28 47 49 54 59 59 75 95 156 222 246 251 246 221 194 229 241 244 259 250 245 248 249 256 255 256 273 264 261 265 262
81 66 58 57 54 57 49 50 51 42 30 22 39 38 38 57 63 64 77 95 95 91 85 81 97 143 177 213 234 248 240 248 249 248 265 267 259 254 263 267 272 270 268
146 82 48 37 48 52 51 49 45 34 16 349 341 359 353 31 30 44 66 79 74 68 66 64 65 62 97 122 249 239 243 248 247 251 261 266 260 256 258 260 263 266 266
154 139 51 28 40 35 35 41 37 32 47 55 33 28 62 47 12 23 20 46 55 62 73 64 72 73 60 58 42 19 340 313 296 287 281 277 274 271 268 267 263 261 263
135 118 79 45 26 21 31 28 16 8 33 75 46 54 44 9 338 307 312 219 172 74 55 49 36 41 32 13 356 349 349 348 346 337 324 309 294 287 286 286 281 274 268